Ruston, LA

4:38 PM CST on February 14, 2016 (GMT -0600)
Ruston Regional

Weather History for KRSN - June, 2013

Change the Weather History Date:

Friday, June 7, 2013

  Actual Average Record
Temperature  
Mean Temperature 73 °F -  
Max Temperature 82 °F 87 °F 100 °F (1934)
Min Temperature 64 °F 66 °F 58 °F (1970)
Cooling Degree Days 8    
Growing Degree Days 23 (Base 50)    
Moisture  
Dew Point 66 °F    
Average Humidity 82    
Maximum Humidity 100    
Minimum Humidity 50    
Precipitation  
Precipitation 0.01 in - - ()
Sea Level Pressure  
Sea Level Pressure 29.92 in    
Wind  
Wind Speed 3 mph (North)    
Max Wind Speed 10 mph    
Max Gust Speed 16 mph    
Visibility 10 miles    
Events      
Averages and records for this station are not official NWS values.
T = Trace of Precipitation, MM = Missing Value Source: NWS Daily Summary

Daily Weather History Graph

Daily Weather History Graph

Search for Another Location

Airport or City:

Trip Planner

Search our weather history database for the weather conditions in past years. The results will help you decide how hot, cold, wet, or windy it might be!

Date:

Astronomy

Jun. 07, 2013 Rise Set
Actual Time 6:02 AM CDT 8:16 PM CDT
Civil Twilight 5:34 AM CDT 8:44 PM CDT
Nautical Twilight 4:59 AM CDT 9:19 PM CDT
Astronomical Twilight 4:22 AM CDT 9:56 PM CDT
Moon 5:21 AM CDT (6/7) 7:33 PM CDT (6/7)
Length of Visible Light 15h 10m
Length of Day
14h 13m
Waning Crescent, 1% of the Moon is Illuminated
Jun 7
Waning Crescent
Jun 8
New
Jun 16
First Quarter
Jun 23
Full
Jun 29
Last Quarter

Hourly Weather History & Observations

Time (CDT) Temp. Heat Index Dew Point Humidity Pressure Visibility Wind Dir Wind Speed Gust Speed Precip Events Conditions
12:15 AM 69.3 °F - 69.3 °F 100% 29.91 in 10.0 mi West 3.5 mph - 0.01 in   Drizzle
12:35 AM 69.1 °F - 69.1 °F 100% 29.90 in 10.0 mi Calm Calm - 0.01 in   Mostly Cloudy
12:55 AM 68.9 °F - 68.9 °F 100% 29.89 in 10.0 mi Calm Calm - 0.01 in   Mostly Cloudy
1:15 AM 68.9 °F - 68.9 °F 100% 29.89 in 10.0 mi Calm Calm - N/A   Scattered Clouds
1:35 AM 68.5 °F - 68.5 °F 100% 29.89 in 10.0 mi Calm Calm - N/A   Clear
1:55 AM 68.4 °F - 68.4 °F 100% 29.88 in 10.0 mi Calm Calm - N/A   Clear
2:15 AM 68.4 °F - 68.4 °F 100% 29.88 in 10.0 mi Calm Calm - N/A   Clear
2:35 AM 68.2 °F - 68.2 °F 100% 29.88 in 10.0 mi NNW 3.5 mph - N/A   Clear
2:55 AM 68.0 °F - 68.0 °F 100% 29.88 in 10.0 mi Calm Calm - N/A   Clear
3:15 AM 68.0 °F - 68.0 °F 100% 29.88 in 10.0 mi Calm Calm - N/A   Clear
3:35 AM 68.0 °F - 68.0 °F 100% 29.88 in 10.0 mi NW 3.5 mph - N/A   Scattered Clouds
3:55 AM 67.6 °F - 67.6 °F 100% 29.88 in 10.0 mi Calm Calm - N/A   Scattered Clouds
4:15 AM 67.5 °F - 67.5 °F 100% 29.88 in 10.0 mi Calm Calm - N/A   Clear
4:35 AM 67.3 °F - 67.3 °F 100% 29.88 in 10.0 mi NW 3.5 mph - N/A   Clear
4:55 AM 67.3 °F - 67.3 °F 100% 29.88 in 10.0 mi Calm Calm - N/A   Clear
5:15 AM 67.1 °F - 67.1 °F 100% 29.89 in 10.0 mi Calm Calm - N/A   Clear
5:35 AM 67.1 °F - 67.1 °F 100% 29.90 in 10.0 mi Calm Calm - N/A   Clear
5:55 AM 67.1 °F - 67.1 °F 100% 29.90 in 10.0 mi Calm Calm - N/A   Clear
6:15 AM 66.7 °F - 66.7 °F 100% 29.91 in 7.0 mi Calm Calm - N/A   Scattered Clouds
6:35 AM 66.7 °F - 66.7 °F 100% 29.91 in 7.0 mi Calm Calm - N/A   Scattered Clouds
6:55 AM 66.7 °F - 66.7 °F 100% 29.91 in 7.0 mi NNW 3.5 mph - N/A   Clear
7:15 AM 67.3 °F - 67.3 °F 100% 29.92 in 7.0 mi Calm Calm - N/A   Clear
7:35 AM 68.0 °F - 68.0 °F 100% 29.92 in 10.0 mi Calm Calm - N/A   Clear
7:55 AM 68.9 °F - 68.9 °F 100% 29.92 in 10.0 mi North 3.5 mph - N/A   Scattered Clouds
8:15 AM 69.8 °F - 69.1 °F 98% 29.93 in 10.0 mi North 6.9 mph - N/A   Clear
8:35 AM 70.0 °F - 68.2 °F 94% 29.93 in 10.0 mi North 4.6 mph - N/A   Mostly Cloudy
8:55 AM 71.2 °F - 66.9 °F 86% 29.94 in 10.0 mi NNE 5.8 mph - N/A   Scattered Clouds
9:15 AM 72.1 °F - 65.1 °F 78% 29.94 in 10.0 mi NNE 5.8 mph - N/A   Clear
9:35 AM 73.6 °F - 65.1 °F 75% 29.94 in 10.0 mi North 6.9 mph - N/A   Clear
9:55 AM 74.3 °F - 64.9 °F 72% 29.94 in 10.0 mi NE 5.8 mph - N/A   Scattered Clouds
10:15 AM 75.2 °F - 65.7 °F 72% 29.94 in 10.0 mi North 5.8 mph - N/A   Scattered Clouds
10:35 AM 75.7 °F - 66.2 °F 72% 29.94 in 10.0 mi North 5.8 mph - N/A   Scattered Clouds
10:55 AM 76.1 °F - 66.0 °F 71% 29.94 in 10.0 mi North 4.6 mph - N/A   Scattered Clouds
11:15 AM 77.7 °F - 65.8 °F 67% 29.94 in 10.0 mi North 6.9 mph - N/A   Scattered Clouds
11:35 AM 77.4 °F - 65.3 °F 66% 29.94 in 10.0 mi North 4.6 mph - N/A   Scattered Clouds
11:55 AM 79.2 °F - 64.6 °F 61% 29.94 in 10.0 mi NNE 8.1 mph - N/A   Scattered Clouds
12:15 PM 79.2 °F - 65.3 °F 62% 29.94 in 10.0 mi NNE 9.2 mph - N/A   Mostly Cloudy
12:35 PM 78.6 °F - 64.9 °F 63% 29.95 in 10.0 mi North 9.2 mph - N/A   Mostly Cloudy
12:55 PM 77.5 °F - 64.8 °F 65% 29.95 in 10.0 mi North 6.9 mph - N/A   Mostly Cloudy
1:15 PM 79.7 °F - 65.1 °F 61% 29.94 in 10.0 mi North 8.1 mph - N/A   Scattered Clouds
1:35 PM 79.3 °F - 65.3 °F 62% 29.94 in 10.0 mi North 8.1 mph - N/A   Mostly Cloudy
1:55 PM 80.1 °F 81.7 °F 64.0 °F 58% 29.93 in 10.0 mi North 5.8 mph - N/A   Mostly Cloudy
2:15 PM 80.8 °F 82.2 °F 63.5 °F 56% 29.93 in 10.0 mi NNW 4.6 mph - N/A   Scattered Clouds
2:35 PM 81.0 °F 82.6 °F 64.4 °F 57% 29.92 in 10.0 mi North 10.4 mph 16.1 mph N/A   Scattered Clouds
2:55 PM 80.8 °F 82.0 °F 62.6 °F 54% 29.92 in 10.0 mi North 8.1 mph - N/A   Scattered Clouds
3:15 PM 79.9 °F - 61.7 °F 54% 29.91 in 10.0 mi North 9.2 mph - N/A   Scattered Clouds
3:35 PM 80.2 °F 81.5 °F 63.0 °F 55% 29.91 in 10.0 mi North 6.9 mph - N/A   Mostly Cloudy
3:55 PM 80.1 °F 81.5 °F 63.1 °F 56% 29.91 in 10.0 mi North 8.1 mph - N/A   Mostly Cloudy
4:15 PM 79.9 °F - 62.2 °F 55% 29.91 in 10.0 mi North 3.5 mph - N/A   Scattered Clouds
4:35 PM 79.3 °F - 61.5 °F 54% 29.91 in 10.0 mi North 5.8 mph - N/A   Mostly Cloudy
4:55 PM 81.9 °F 82.6 °F 61.3 °F 50% 29.91 in 10.0 mi North 8.1 mph - N/A   Scattered Clouds
5:15 PM 81.5 °F 82.7 °F 62.8 °F 53% 29.91 in 10.0 mi NNE 6.9 mph - N/A   Scattered Clouds
5:35 PM 80.4 °F 81.4 °F 61.3 °F 52% 29.91 in 10.0 mi North 9.2 mph - N/A   Scattered Clouds
5:55 PM 80.6 °F 81.7 °F 62.1 °F 53% 29.91 in 10.0 mi North 5.8 mph - N/A   Clear
6:15 PM 79.7 °F - 61.2 °F 53% 29.91 in 10.0 mi NNE 6.9 mph - N/A   Scattered Clouds
6:35 PM 78.1 °F - 64.0 °F 62% 29.91 in 10.0 mi Calm Calm - N/A   Clear
6:55 PM 79.7 °F - 60.8 °F 52% 29.91 in 10.0 mi North 4.6 mph - N/A   Scattered Clouds
7:15 PM 79.0 °F - 61.5 °F 55% 29.91 in 10.0 mi NNE 5.8 mph - N/A   Scattered Clouds
7:35 PM 77.4 °F - 64.6 °F 65% 29.91 in 10.0 mi Calm Calm - N/A   Clear
7:55 PM 73.2 °F - 67.8 °F 83% 29.91 in 10.0 mi Calm Calm - N/A   Clear
8:15 PM 70.9 °F - 70.2 °F 98% 29.92 in 10.0 mi Calm Calm - N/A   Clear
8:35 PM 69.6 °F - 69.6 °F 100% 29.92 in 10.0 mi Calm Calm - N/A   Clear
8:55 PM 68.9 °F - 68.9 °F 100% 29.92 in 10.0 mi Calm Calm - N/A   Clear
9:15 PM 68.4 °F - 68.4 °F 100% 29.93 in 10.0 mi Calm Calm - N/A   Clear
9:35 PM 67.6 °F - 67.6 °F 100% 29.93 in 10.0 mi Calm Calm - N/A   Clear
9:55 PM 67.1 °F - 67.1 °F 100% 29.93 in 10.0 mi Calm Calm - N/A   Clear
10:15 PM 66.6 °F - 66.6 °F 100% 29.94 in 7.0 mi Calm Calm - N/A   Clear
10:35 PM 65.8 °F - 65.8 °F 100% 29.95 in 7.0 mi Calm Calm - N/A   Clear
10:55 PM 65.5 °F - 65.5 °F 100% 29.96 in 7.0 mi Calm Calm - N/A   Clear
11:15 PM 65.5 °F - 65.5 °F 100% 29.96 in 7.0 mi Calm Calm - N/A   Clear
11:35 PM 65.3 °F - 65.3 °F 100% 29.96 in 7.0 mi Calm Calm - N/A   Clear
11:55 PM 64.6 °F - 64.6 °F 100% 29.96 in 7.0 mi Calm Calm - N/A   Clear